Location: Catstown
(52.4386°N, 7.2633°W)
Time: 03:53:29
(UTC+00:00)

Cosmos 1766 - Pass Details

Date: 18 September 2020
Orbit: 522 x 543 km, 82.5° (Epoch: 18 October)

Event Time Altitude Azimuth Distance (km) Brightness Sun altitude
Exits shadow 21:09:23 77° 25° (NNE) 554 3.2 -22.6°
Drops below altitude 10° 21:13:06 10° 12° (NNE) 1,806 6.2 -23.1°
Sets 21:15:17 0° 12° (NNE) 2,706 7.2 -23.4°
